Starlink 2658

operational
NORAD ID: 48473 Int'l Des: 2021-040 Owner: SPXS Country: US Constellation: starlink
LEOCIRCULARSTARLINK_TYPE

Über Starlink 2658

Beschreibung wird geladen...

Live-Position

3D-Globus wird geladen...

Nächste Überflüge

Höhenverlauf

Altitude vs Time

uPlot chart will show altitude changes over time

Zweizeiliger Elementsatz

1 48473U 21040AX 25351.59097279 .00001417 00000-0 11398-3 0 9995
2 48473 53.0534 200.1745 0001706 90.6058 269.5126 15.06406965254115
Epoch: 17. Dez. 2025 • Age: 19 hours

Aktueller Status

Höhe 548.5 km
Geschwindigkeit 7.59 km/s
Subsatellitenpunkt 32.42°N, 4.47°W
Startdatum 9. Mai 2021
Alter 4.6 years
Typ internet

Technische Details

Klassifizierung Payload
Masse 260.00 kg
Trockenmasse 248.00 kg
Gesamtmasse 260.00 kg
Länge 0.20 m
Durchmesser 2.80 m
Spannweite 9.00 m
Form Box + pan
Hersteller SPXS
Bus-Typ Starlink
Phasenstatus In Orbit
Besitzer/Staat SPXS/US

Große Konstellationen

Loading constellations...